Location: Unspecified
(0.0000°N, 0.0000°E)
Time: 23:46:38
(UTC-04:00)

Envisat - Pass Details

Date: 23 September 2021
Orbit: 764 x 766 km, 98.2° (Epoch: 26 October)

Event Time Altitude Azimuth Distance (km) Brightness Sun altitude
Rises 01:23:30 0° 353° (N) 3,212 6.1 -7.2°
Reaches altitude 10° 01:26:02 10° 342° (NNW) 2,289 5.3 -6.6°
Maximum altitude 01:30:23 30° 282° (WNW) 1,354 3.8 -5.5°
Drops below altitude 10° 01:34:45 10° 222° (SW) 2,298 5.1 -4.4°
Sets 01:37:19 0° 211° (SSW) 3,226 5.9 -3.8°
